Location: Boiro
(42.6475°N, 8.8834°W)
Time: 15:36:34
(UTC+01:00)

Explorer 11/Cluster Stage 4 - Pass Details

Date: 06 December 2021
Orbit: 467 x 1255 km, 28.8° (Epoch: 21 January)

Event Time Altitude Azimuth Distance (km) Brightness Sun altitude
Rises 05:41:45 0° 251° (WSW) 3,624 - -34.0°
Reaches altitude 10° 05:44:45 10° 238° (WSW) 2,806 - -33.5°
Maximum altitude 05:50:11 24° 187° (S) 2,125 - -32.5°
Exits shadow 05:50:25 24° 184° (S) 2,134 8.7 -32.4°
Drops below altitude 10° 05:56:13 10° 138° (SE) 3,149 10.1 -31.4°
Sets 05:59:49 0° 126° (SE) 4,167 11.1 -30.7°
